This is the latest recevied weather packets stored in our database for station/object K0APR. If no packets are shown the sender has not sent any weather packets the latest 1 day(s).
| Time | Temp. | Humidity | Pressure | Rain* | Wind** | Luminosity | Snow |
|---|---|---|---|---|---|---|---|
| 1778055705 | 3.89° C | 60% | 1015.8 hPa | 0 mm | 0.89 m/s, 316° | 0 W/m² | - |
| 1778055403 | 3.89° C | 60% | 1015.5 hPa | 0 mm | 1.79 m/s, 320° | 0 W/m² | - |
| 1778055101 | 3.89° C | 61% | 1015.5 hPa | 0 mm | 2.24 m/s, 326° | 0 W/m² | - |
| 1778054798 | 3.89° C | 61% | 1015.5 hPa | 0 mm | 1.79 m/s, 320° | 0 W/m² | - |
| 1778054495 | 3.89° C | 61% | 1015.5 hPa | 0 mm | 1.34 m/s, 323° | 0 W/m² | - |
| 1778054192 | 3.89° C | 60% | 1015.5 hPa | 0 mm | 3.13 m/s, 331° | 0 W/m² | - |
| 1778053889 | 3.89° C | 60% | 1015.5 hPa | 0 mm | 3.13 m/s, 316° | 0 W/m² | - |
| 1778053587 | 3.89° C | 62% | 1015.5 hPa | 0 mm | 1.79 m/s, 321° | 0 W/m² | - |
| 1778053284 | 3.89° C | 61% | 1015.8 hPa | 0 mm | 2.68 m/s, 321° | 0 W/m² | - |
| 1778052982 | 3.89° C | 61% | 1015.8 hPa | 0 mm | 3.13 m/s, 311° | 0 W/m² | - |
| 1778052679 | 3.89° C | 61% | 1015.5 hPa | 0 mm | 2.24 m/s, 323° | 0 W/m² | - |
| 1778052375 | 3.89° C | 61% | 1015.5 hPa | 0 mm | 2.24 m/s, 316° | 0 W/m² | - |
| 1778052073 | 3.89° C | 60% | 1015.5 hPa | 0 mm | 2.68 m/s, 322° | 0 W/m² | - |
| 1778051770 | 3.89° C | 60% | 1015.1 hPa | 0 mm | 1.79 m/s, 327° | 0 W/m² | - |
| 1778051468 | 4.44° C | 59% | 1015.5 hPa | 0 mm | 2.68 m/s, 344° | 0 W/m² | - |
| 1778051165 | 4.44° C | 59% | 1015.5 hPa | 0 mm | 2.24 m/s, 327° | 0 W/m² | - |
| 1778050862 | 4.44° C | 58% | 1015.5 hPa | 0 mm | 2.24 m/s, 312° | 0 W/m² | - |
| 1778050560 | 4.44° C | 59% | 1015.5 hPa | 0 mm | 2.24 m/s, 333° | 0 W/m² | - |
| 1778050256 | 4.44° C | 59% | 1015.5 hPa | 0 mm | 3.13 m/s, 338° | 0 W/m² | - |
| 1778049953 | 4.44° C | 59% | 1015.5 hPa | 0 mm | 3.13 m/s, 327° | 0 W/m² | - |
| 1778049648 | 4.44° C | 58% | 1015.5 hPa | 0 mm | 3.58 m/s, 331° | 0 W/m² | - |
| 1778049347 | 4.44° C | 59% | 1015.5 hPa | 0 mm | 3.58 m/s, 321° | 0 W/m² | - |
| 1778049044 | 4.44° C | 59% | 1015.5 hPa | 0 mm | 2.68 m/s, 324° | 0 W/m² | - |
| 1778048742 | 3.89° C | 59% | 1015.1 hPa | 0 mm | 3.13 m/s, 326° | 0 W/m² | - |
| 1778048439 | 4.44° C | 59% | 1015.1 hPa | 0 mm | 1.79 m/s, 350° | 0 W/m² | - |
* Rain latest hour (hover to see other rain measurements)
** Current wind speed in m/s (hover to see current wind gust speed)